Regional Weather Roundup
Issued by NWS

Home | Current Version | Previous Version | Graphics & Text | Print | Product List | Glossary On
Versions: 1 2 3 4 5 6 7 8 9 10 11 12 13 14 15 16 17 18 19 20 21 22 23 24 25 26 27 28 29 30 31 32 33 34 35 36 37 38 39 40 41 42 43 44 45 46 47 48 49 50
198
ASUS43 KMPX 140910
RWRMN
WEATHER ROUNDUP FOR MINNESOTA
NATIONAL WEATHER SERVICE TWIN CITIES/CHANHASSEN MN
300 AM CST SUN FEB 14 2016


NOTE: "FAIR" INDICATES FEW OR NO CLOUDS BELOW 12,000 FEET WITH NO
SIGNIFICANT WEATHER AND/OR OBSTRUCTIONS TO VISIBILITY. N/A MEANS
CURRENT SKY AND/OR WEATHER CONDITIONS ARE NOT AVAILABLE.

MNZ060>063-068>070-141000-
   Twin Cities Metro

CITY           SKY/WX    TMP DP  RH WIND       PRES   REMARKS
TWIN CITIES    CLOUDY    10  -3  55 E12       30.21F WCI  -5
ST PAUL        CLOUDY    10  -4  53 SE10      30.24F WCI  -4
CRYSTAL        CLOUDY    11  -3  53 SE8       30.19F WCI  -1
BLAINE         CLOUDY    10  -2  56 SE8       30.19F WCI  -1
LAKEVILLE      CLOUDY     9   1  72 SE7       30.19F WCI  -3
EDEN PRAIRIE   CLOUDY    11  -1  58 E9        30.19F WCI  -2
SOUTH ST PAUL  CLOUDY    10  -4  52 SE5       30.23F WCI   2
LAKE ELMO      CLOUDY    10  -4  52 SE6       30.23F WCI   1
$$
MNZ001>005-007-008-013>017-022>024-027-028-141000-
   Northwest Minnesota

CITY           SKY/WX    TMP DP  RH WIND       PRES   REMARKS
BEMIDJI        CLOUDY     6  -4  61 SE10      30.04F WCI  -8
HALLOCK        LGT SNOW  12   9  85 SE18      29.96F WCI  -5
ROSEAU         LGT SNOW  10   3  72 S13       30.00F WCI  -5
WARROAD        LGT SNOW   9   0  66 S14       30.02F WCI  -8
THIEF RVR FALL CLOUDY    10   5  79 SE14      29.99F WCI  -5
CROOKSTON      CLOUDY    12   9  85 S17       30.00F WCI  -5
FOSSTON        LGT SNOW   9   0  66 SE13G20   29.99F WCI  -7
DETROIT LAKES  CLOUDY    12   5  73 SE14G21   29.99F WCI  -3
MOORHEAD       MIX PCPN  12   7  79 S20G29    29.99F WCI  -6
PARK RAPIDS    CLOUDY    10  -4  53 SE16      30.04F WCI  -7
MAHNOMEN       CLOUDY    11   4  72 SE14      29.98F WCI  -5
$$
MNZ006-009>011-018-025>026-141000-
   North Central Minnesota

CITY           SKY/WX    TMP DP  RH WIND       PRES   REMARKS
BAUDETTE       CLOUDY     4 -10  52 SE13      30.04F WCI -13
FLAG ISLAND    CLOUDY     3  -6  66 S22       30.03F WCI -19
INTL FALLS     CLOUDY   -12 -19  71 SE8       30.12F WCI -29
WASKISH        CLOUDY     7  -8  51 SE9       30.06F WCI  -7
LONGVILLE      CLOUDY     5  -8  56 SE5       30.10F WCI  -4
GRAND RAPIDS   CLOUDY     0 -11  60 SE7       30.13F WCI -13
CRANE LAKE     CLOUDY   -20 -26  76 CALM      30.22F
ORR            CLOUDY    -4 -17  54 CALM      30.13F
COOK           CLOUDY    -6 -15  65 SE6       30.17F WCI -18
WALKER         CLOUDY     6  -7  56 SE7       30.07F WCI  -6
$$
MNZ012-019>021-037-141000-
   Northeast Minnesota

CITY           SKY/WX    TMP DP  RH WIND       PRES   REMARKS
DULUTH         CLOUDY    -2 -15  54 S6        30.19F WCI -14
ELY            CLOUDY   -20 -26  76 CALM      30.20F
HIBBING        CLOUDY   -16 -19  87 SE5       30.17F WCI -29
EVELETH        CLEAR    -20 -27  69 CALM      30.20F
DULUTH HARBOR  CLOUDY     0  -8  71 CALM      30.30F
TWO HARBORS    CLOUDY    -9 -15  77 CALM      30.23F
SILVER BAY     CLOUDY   -18 -24  76 CALM      30.24F
GRAND MARAIS     N/A     16   5  62 SW12      30.30F WCI   3
G MARAIS ARPRT CLOUDY     3  -2  78 S6        30.18F WCI  -8
$$
MNZ029>031-032-039>041-046>048-054>057-064-141000-
   West Central Minnesota

CITY           SKY/WX    TMP DP  RH WIND       PRES   REMARKS
FERGUS FALLS   FLURRIES  12   7  79 SE17G23   30.03F WCI  -5
WHEATON        LGT SNOW  12  10  92 SE22      30.01F WCI  -7
MORRIS         LGT SNOW  10   7  85 SE18      30.00F WCI  -8
ALEXANDRIA     FLURRIES   9   2  73 SE15      30.03F WCI  -8
ELBOW LAKE     CLOUDY    10   6  82 E21       30.00F WCI  -9
WADENA         FLURRIES   9   0  66 SE13      30.04F WCI  -7
GLENWOOD       CLOUDY     9   3  78 SE15      30.04F WCI  -8
APPLETON       LGT SNOW  12   9  85 SE15      30.02F WCI  -4
BENSON         FLURRIES  10   7  85 S15G21    30.02F WCI  -6
ORTONVILLE     LGT SNOW  12   9  85 SE14G20   29.98F WCI  -3
MADISON        LGT SNOW  14  10  85 SE17      30.01F WCI  -3
WILLMAR        FLURRIES  12   9  85 SE18      30.06F WCI  -5
$$
MNZ033>034-036-042>043-049>051-058-059-141000-
   Central Minnesota

CITY           SKY/WX    TMP DP  RH WIND       PRES   REMARKS
ST CLOUD       CLOUDY    10  -3  55 SE13      30.14F WCI  -5
SAUK CENTRE    CLOUDY     9   1  72 SE14G20   30.06F WCI  -8
PAYNESVILLE    CLOUDY    10   3  74 SE12      30.08F WCI  -5
AITKIN         CLOUDY     9 -11  40 SE8       30.13F WCI  -4
PINE RIVER     CLOUDY     5  -4  66 SE10      30.12F WCI -10
BRAINERD       CLOUDY     8  -6  52 SE7       30.12F WCI  -3
STAPLES        CLOUDY     9  -6  52 SE9       30.07F WCI  -5
LONG PRAIRIE   CLOUDY     9   0  66 E8        30.07F WCI  -4
LITTLE FALLS   CLOUDY    10  -4  52 SE10      30.13F WCI  -3
LITCHFIELD     CLOUDY    10   5  79 SE12G17   30.11F WCI  -4
BUFFALO        CLOUDY    11  -3  53 SE9       30.17F WCI  -2
MAPLE LAKE     CLOUDY    11   1  63 SE7       30.16F WCI   1
$$
MNZ037-044-045-052-053-141000-
   East Central Minnesota

CITY           SKY/WX    TMP DP  RH WIND       PRES   REMARKS
PRINCETON      CLOUDY    10  -4  52 E8        30.16F WCI  -1
MORA           CLOUDY     7  -4  61 SE6       30.21F WCI  -3
CAMBRIDGE      CLOUDY    10  -2  56 SE8       30.18F WCI  -1
RUSH CITY      CLOUDY     7  -6  53 SE8       30.22F WCI  -5
MOOSE LAKE     CLOUDY    -4 -13  65 CALM      30.20F
HINCKLEY       CLOUDY     3  -8  60 E3        30.22F
CLOQUET        CLOUDY    -4 -17  54 E3        30.20F
MCGREGOR       CLOUDY     5  -8  56 SE8       30.17F WCI  -8
$$
MNZ071>073-080-081-089-090-097-098-141000-
   Southwest Minnesota

CITY           SKY/WX    TMP DP  RH WIND       PRES   REMARKS
MONTEVIDEO     CLOUDY    12   9  85 S16G23    30.04F WCI  -4
GRANITE FALLS  CLOUDY    14  10  85 SE16G23   30.05F WCI  -2
CANBY          LGT SNOW  17  12  81 S16       30.01F WCI   2
MARSHALL       LGT SNOW  13   9  84 S21       30.02F FOG     WCI  -5
REDWOOD FALLS  CLOUDY    12   8  84 SE24G31   30.05F WCI  -8
OLIVIA         CLOUDY    12   9  85 SE21G28   30.05F WCI  -6
PIPESTONE      CLOUDY    12   3  67 S17G24    29.95F HAZE    WCI  -5
WINDOM         LGT SNOW  12   9  85 SE15G23   30.03F WCI  -4
WORTHINGTON    CLOUDY    10   7  85 SE18G24   30.00F WCI  -8
JACKSON        LGT SNOW  14   9  79 SE16      30.04F WCI  -2
TRACY          LGT SNOW  14  10  83 S20G26    30.00F WCI  -3
SLAYTON        LGT SNOW  11  10  93 SE20      29.99F VSB 1   WCI  -7
$$
MNZ065>067-074>077-082>085-091>093-141000-
   South Central Minnesota

CITY           SKY/WX    TMP DP  RH WIND       PRES   REMARKS
MANKATO        CLOUDY    12   7  79 SE15      30.14F WCI  -4
NEW ULM        LGT SNOW  10   7  85 SE16      30.10F WCI  -7
ST JAMES       CLOUDY    12  10  92 SE18G24   30.10F WCI  -5
FAIRMONT       CLOUDY    12   7  79 SE18      30.07F WCI  -5
GLENCOE        CLOUDY    13   6  75 SE9       30.14F WCI   0
FARIBAULT      CLOUDY    12   1  62 SE10      30.19F WCI  -1
OWATONNA       CLOUDY    12   3  67 SE14      30.16F WCI  -3
WASECA         CLOUDY    12   7  79 SE15      30.17F WCI  -4
ALBERT LEA     LGT SNOW  10   7  85 SE17      30.14F WCI  -7
$$
MNZ078>079-086>088-094>096-141000-
   Southeast Minnesota

CITY           SKY/WX    TMP DP  RH WIND       PRES   REMARKS
ROCHESTER      CLOUDY     9   0  67 SE15      30.19F WCI  -8
RED WING       CLOUDY    10  -4  52 SE9       30.25F WCI  -2
STANTON        CLOUDY    13  -1  55 SE7       30.19F WCI   2
DODGE CENTER   CLOUDY     9   1  72 SE15      30.16F WCI  -8
WINONA         CLOUDY    10   0  61 SE9       30.30F WCI  -2
AUSTIN         FLURRIES  10   7  85 SE10      30.17F WCI  -3
PRESTON        CLOUDY     8  -2  63 SE12      30.21F WCI  -7
$$
ABBREVIATIONS USED IN REMARKS
   TC - TEMPERATURES IN CELSIUS
  WCI - WIND CHILL INDEX
   HX - HEAT INDEX
  VSB - VISIBILITY
$$




USA.gov is the U.S. government's official web portal to all federal, state and local government web resources and services.